Time,TemperatureF,DewpointF,PressureIn,WindDirection,WindDirectionDegrees,WindSpeedMPH,WindSpeedGustMPH,Humidity,HourlyPrecipIn,Conditions,Clouds,dailyrainin,SolarRadiationWatts/m^2,SoftwareType,DateUTC
2013-01-28 00:00:00,40.8,35.7,29.59,SW,226,0.0,5.0,82,0.00,-RA,OVC,0.00,0.0,WeatherDisplay:10.37,2013-01-28 00:00:00,
2013-01-28 00:30:00,40.9,36.1,29.59,SW,235,0.0,5.0,83,0.00,-RA,OVC,0.00,0.0,WeatherDisplay:10.37,2013-01-28 00:30:00,
2013-01-28 01:00:00,40.9,36.4,29.60,WNW,289,2.0,7.0,84,0.00,-RA,OVC,0.00,0.0,WeatherDisplay:10.37,2013-01-28 01:00:00,
2013-01-28 01:30:00,41.1,36.3,29.61,West,279,1.0,7.0,83,0.00,-RA,OVC,0.00,0.0,WeatherDisplay:10.37,2013-01-28 01:30:00,
2013-01-28 02:00:00,41.0,36.5,29.63,West,261,3.0,10.0,84,0.00,-RA,OVC,0.00,0.0,WeatherDisplay:10.37,2013-01-28 02:00:00,
2013-01-28 02:30:00,40.8,36.3,29.63,West,275,5.0,12.0,84,0.00,-RA,OVC,0.00,0.0,WeatherDisplay:10.37,2013-01-28 02:30:00,
2013-01-28 03:00:00,40.5,36.3,29.64,West,274,3.0,12.0,85,0.00,-RA,OVC,0.00,0.0,WeatherDisplay:10.37,2013-01-28 03:00:00,
2013-01-28 03:30:00,39.8,35.6,29.65,West,265,3.0,13.0,85,0.00,-RA,OVC,0.00,0.0,WeatherDisplay:10.37,2013-01-28 03:30:00,
2013-01-28 04:00:00,39.3,35.5,29.67,WNW,302,3.0,12.0,86,0.00,-RA,OVC,0.00,0.0,WeatherDisplay:10.37,2013-01-28 04:00:00,
2013-01-28 04:30:00,38.9,35.0,29.68,WNW,284,2.0,9.0,86,0.00,-RA,OVC,0.00,0.0,WeatherDisplay:10.37,2013-01-28 04:30:00,
2013-01-28 05:30:00,38.3,34.4,29.71,West,272,0.0,7.0,86,0.00,-RA,OVC,0.00,0.0,WeatherDisplay:10.37,2013-01-28 05:30:00,
2013-01-28 06:00:00,37.9,34.3,29.72,West,267,2.0,10.0,87,0.00,-RA,OVC,0.00,0.0,WeatherDisplay:10.37,2013-01-28 06:00:00,
2013-01-28 06:30:00,37.8,34.3,29.73,West,259,2.0,10.0,87,0.00,-RA,OVC,0.00,0.0,WeatherDisplay:10.37,2013-01-28 06:30:00,
2013-01-28 07:00:00,37.4,34.1,29.74,West,279,2.0,10.0,88,0.00,-RA,OVC,0.00,0.0,WeatherDisplay:10.37,2013-01-28 07:00:00,
2013-01-28 07:30:00,37.4,34.1,29.74,WNW,282,1.0,10.0,88,0.00,-RA,OVC,0.00,0.0,WeatherDisplay:10.37,2013-01-28 07:30:00,
2013-01-28 08:00:00,37.7,34.5,29.76,West,270,5.0,15.0,88,0.00,-RA,OVC,0.00,14.0,WeatherDisplay:10.37,2013-01-28 08:00:00,
2013-01-28 08:30:00,37.9,34.7,29.76,West,281,3.0,12.0,88,0.00,-RA,OVC,0.00,54.0,WeatherDisplay:10.37,2013-01-28 08:30:00,
2013-01-28 09:00:00,39.1,35.3,29.77,West,261,3.0,12.0,86,0.00,-RA,OVC,0.00,123.0,WeatherDisplay:10.37,2013-01-28 09:00:00,
2013-01-28 09:30:00,40.0,35.8,29.79,WSW,255,6.0,14.0,85,0.00,-RA,OVC,0.00,132.0,WeatherDisplay:10.37,2013-01-28 09:30:00,
2013-01-28 10:00:00,41.0,36.5,29.78,WSW,246,1.0,13.0,84,0.00,-RA,OVC,0.00,139.0,WeatherDisplay:10.37,2013-01-28 10:00:00,
2013-01-28 10:30:00,42.4,36.9,29.78,WSW,255,3.0,14.0,81,0.00,-RA,OVC,0.00,148.0,WeatherDisplay:10.37,2013-01-28 10:30:00,
2013-01-28 11:00:00,43.8,37.7,29.77,West,263,3.0,15.0,79,0.00,-RA,OVC,0.00,174.0,WeatherDisplay:10.37,2013-01-28 11:00:00,
2013-01-28 11:30:00,45.3,38.5,29.76,WSW,244,6.0,14.0,77,0.00,-RA,OVC,0.00,197.0,WeatherDisplay:10.37,2013-01-28 11:30:00,
2013-01-28 12:00:00,45.9,39.1,29.75,SW,232,7.0,15.0,77,0.00,-RA,OVC,0.00,72.0,WeatherDisplay:10.37,2013-01-28 12:00:00,
2013-01-28 12:30:00,46.2,39.7,29.73,SW,234,6.0,15.0,78,0.00,-RA,OVC,0.00,81.0,WeatherDisplay:10.37,2013-01-28 12:30:00,
2013-01-28 13:00:00,46.7,40.8,29.72,WSW,237,6.0,16.0,80,0.00,-RA,OVC,0.00,63.0,WeatherDisplay:10.37,2013-01-28 13:00:00,
2013-01-28 13:30:00,47.5,40.6,29.70,SW,218,6.0,17.0,77,0.00,-RA,OVC,0.00,37.0,WeatherDisplay:10.37,2013-01-28 13:30:00,
2013-01-28 14:00:00,47.4,41.8,29.69,SW,221,6.0,20.0,81,0.00,-RA,OVC,0.00,30.0,WeatherDisplay:10.37,2013-01-28 14:00:00,
2013-01-28 14:30:00,46.7,42.7,29.67,SW,221,6.0,15.0,86,0.01,-RA,OVC,0.01,39.0,WeatherDisplay:10.37,2013-01-28 14:30:00,
2013-01-28 15:00:00,46.8,42.9,29.63,SW,217,6.0,22.0,86,0.00,-RA,OVC,0.01,46.0,WeatherDisplay:10.37,2013-01-28 15:00:00,
2013-01-28 15:30:00,47.7,42.8,29.61,SW,219,12.0,23.0,83,0.00,-RA,OVC,0.01,28.0,WeatherDisplay:10.37,2013-01-28 15:30:00,
2013-01-28 16:00:00,48.2,43.2,29.57,SW,222,6.0,23.0,83,0.00,-RA,OVC,0.01,14.0,WeatherDisplay:10.37,2013-01-28 16:00:00,
2013-01-28 16:30:00,47.8,43.8,29.55,SW,214,8.0,23.0,86,0.00,-RA,OVC,0.01,0.0,WeatherDisplay:10.37,2013-01-28 16:30:00,
2013-01-28 17:00:00,47.5,44.4,29.52,WSW,237,13.0,26.0,89,0.00,-RA,OVC,0.01,0.0,WeatherDisplay:10.37,2013-01-28 17:00:00,
2013-01-28 17:30:00,47.3,44.8,29.51,SW,235,7.0,28.0,91,0.04,-RA,OVC,0.05,0.0,WeatherDisplay:10.37,2013-01-28 17:30:00,
2013-01-28 18:00:00,48.2,45.7,29.51,SW,235,13.0,26.0,91,0.00,-RA,OVC,0.05,0.0,WeatherDisplay:10.37,2013-01-28 18:00:00,
2013-01-28 18:30:00,48.2,46.0,29.50,WSW,240,7.0,26.0,92,0.05,-RA,OVC,0.10,0.0,WeatherDisplay:10.37,2013-01-28 18:30:00,
2013-01-28 19:00:00,48.7,46.8,29.48,SW,230,7.0,23.0,93,0.02,-RA,OVC,0.12,0.0,WeatherDisplay:10.37,2013-01-28 19:00:00,
2013-01-28 19:30:00,50.0,47.8,29.50,West,269,10.0,22.0,92,0.00,-RA,OVC,0.12,0.0,WeatherDisplay:10.37,2013-01-28 19:30:00,
2013-01-28 20:00:00,50.9,48.0,29.50,West,277,6.0,21.0,90,0.00,-RA,OVC,0.12,0.0,WeatherDisplay:10.37,2013-01-28 20:00:00,
2013-01-28 20:30:00,51.0,46.0,29.50,West,273,10.0,22.0,83,0.00,-RA,OVC,0.12,0.0,WeatherDisplay:10.37,2013-01-28 20:30:00,
2013-01-28 21:00:00,51.0,45.7,29.52,West,278,5.0,24.0,82,0.00,-RA,OVC,0.12,0.0,WeatherDisplay:10.37,2013-01-28 21:00:00,
2013-01-28 21:30:00,50.8,46.7,29.53,West,264,3.0,14.0,86,0.00,-RA,OVC,0.12,0.0,WeatherDisplay:10.37,2013-01-28 21:30:00,
2013-01-28 22:00:00,51.2,47.1,29.53,WSW,258,2.0,15.0,86,0.00,-RA,OVC,0.12,0.0,WeatherDisplay:10.37,2013-01-28 22:00:00,
2013-01-28 22:30:00,51.3,46.9,29.52,WSW,249,1.0,15.0,85,0.00,-RA,OVC,0.12,0.0,WeatherDisplay:10.37,2013-01-28 22:30:00,
2013-01-28 23:00:00,51.5,46.8,29.54,West,266,3.0,14.0,84,0.00,-RA,OVC,0.12,0.0,WeatherDisplay:10.37,2013-01-28 23:00:00,
2013-01-28 23:30:00,51.8,46.5,29.56,West,266,5.0,18.0,82,0.00,-RA,OVC,0.12,0.0,WeatherDisplay:10.37,2013-01-28 23:30:00,